Regional Weather Roundup
Issued by NWS

Home | Current Version | Previous Version | Graphics & Text | Print | Product List | Glossary On
Versions: 1 2 3 4 5 6 7 8 9 10 11 12 13 14 15 16 17 18 19 20 21 22 23 24 25 26 27 28 29 30 31 32 33 34 35 36 37 38 39 40 41 42 43 44 45 46 47 48 49 50
000
ASUS43 KIND 311459
RWRIN

WEATHER ROUNDUP FOR INDIANA
NATIONAL WEATHER SERVICE INDIANAPOLIS IN
1100 AM EDT THU JUL 31 2014

NOTE: "FAIR" INDICATES FEW OR NO CLOUDS BELOW 12,000 FEET WITH NO
SIGNIFICANT WEATHER AND/OR OBSTRUCTIONS TO VISIBILITY.

* - STATION DOES NOT REPORT WEATHER SUCH AS PRECIPITATION OR FOG.

+ - STATION NOT QUALITY CONTROLLED BY THE NATIONAL WEATHER SERVICE.
    USE DATA WITH CAUTION...ESPECIALLY DEWPOINT AND RELATIVE
    HUMIDITY OBSERVATIONS.

INZ001>003-010>013-019-020-311600-
NORTHWEST INDIANA

CITY           SKY/WX    TMP DP  RH WIND       PRES   REMARKS
GARY /AIRPORT/ SUNNY     75  57  53 SW12      30.06R
MONTICELLO +   SUNNY     71  63  76 W3        30.07S
VALPARAISO     MOSUNNY   76  58  53 W9        30.07R

$$

LMZ046-743>745-311600-
SOUTHERN LAKE MICHIGAN

STATION/POSITION TIME  TEMP WIND        PRES
                       AIR  DIR/SP/G
                 (UTC) (F)  (DEG/KT/KT) (MB)
MICHIGAN CITY    1400   68  200/  8/ 10   N/A

$$

INZ004-005-014>016-021>024-311600-
NORTH CENTRAL INDIANA

CITY           SKY/WX    TMP DP  RH WIND       PRES   REMARKS
ELKHART        PTSUNNY   73  57  56 SW9       30.06R
GOSHEN         MOSUNNY   73  59  61 SW9       30.06R
SOUTH BEND     PTSUNNY   73  58  59 SW10      30.06S

$$

INZ006>009-017-018-025>027-311600-
NORTHEAST INDIANA

CITY           SKY/WX    TMP DP  RH WIND       PRES   REMARKS
ANGOLA *+      SUNNY     73  66  78 SW9       30.06S
FORT WAYNE     SUNNY     73  57  57 SW8       30.08S

$$

INZ028-029-035-036-043>045-051>053-311600-
WEST CENTRAL INDIANA

CITY           SKY/WX    TMP DP  RH WIND       PRES   REMARKS
GREENCASTLE +  SUNNY     72  63  73 SW3       30.11S
LAFAYETTE      SUNNY     71  63  75 VRB5      30.08S
TERRE HAUTE    SUNNY     74  60  61 CALM      30.10S

$$

INZ030>032-037>040-046>048-054>057-064-065-311600-
CENTRAL INDIANA

CITY           SKY/WX    TMP DP  RH WIND       PRES   REMARKS
COLUMBUS       SUNNY     73  64  73 CALM      30.11R
INDIANAPOLIS   SUNNY     72  62  71 W3        30.10S
-EAGLE CREEK   SUNNY     73  61  65 CALM      30.09S
KOKOMO *+      SUNNY     73  63  68 W8        30.08S
MT COMFORT *+  SUNNY     75  68  78 SW5       30.10S
SHELBYVILLE    SUNNY     75  64  68 W3        30.10R

$$

INZ033-034-041-042-049-050-058-059-311600-
EAST CENTRAL INDIANA

CITY           SKY/WX    TMP DP  RH WIND       PRES   REMARKS
MUNCIE         SUNNY     74  61  63 W8        30.09S

$$

INZ060-061-067>069-081>083-085>088-311600-
SOUTHWEST INDIANA

CITY           SKY/WX    TMP DP  RH WIND       PRES   REMARKS
EVANSVILLE     SUNNY     76  61  59 SW3       30.11S

$$

INZ062-063-066-070>080-084-089>092-311600-
SOUTH CENTRAL AND SOUTHEAST INDIANA

CITY           SKY/WX    TMP DP  RH WIND       PRES   REMARKS
BLOOMINGTON    SUNNY     76  62  62 W8        30.11S

$$




USA.gov is the U.S. government's official web portal to all federal, state and local government web resources and services.